Home > Weather > Bristol > Past weeks

Flag for USA Past Weather in Bristol, Tennessee, USA — Yesterday and Last 2 Weeks

Now
75 °F

Sunny.


Feels Like: 77 °F
Forecast: 49 / 78 °F
Wind: 6 mph from West

Location: Abingdon-Southwest Abingdon

Current Time: May 24, 2016 at 7:45:24 PM

Latest Report: May 24, 2016 at 7:15 PM


Visibility: 10 mi

Pressure: 30.16 "Hg (28.44 "Hg at 510m altitude)

Humidity: 38%

Dew Point: 48 °F

Location of BristolLocation

Past Weather in Bristol — Graph

°F

Bristol Temperature Yesterday

Maximum temperature yesterday: 69 °F (at 4:15 PM)
Minimum temperature yesterday: 47 °F (at 6:55 AM)
Average temperature yesterday: 57 °F

High & Low Weather Summary for the Past Weeks

 TemperatureHumidityPressure
High81 °F (May 12, 4:15 PM)100% (May 12, 12:15 AM)30.30 "Hg (May 12, 12:15 AM)
Low39 °F (May 15, 4:55 AM)32% (May 15, 4:55 PM)29.88 "Hg (May 14, 3:35 PM)
Average61 °F73%30.09 "Hg
* Reported May 9 6:15 PM — May 24 6:15 PM, Bristol, Weather by CustomWeather, © 2016

Note: Actual official high and low records may vary slightly from our data, if they occured in-between our weather recording intervals... More about our weather records

Advertising

Bristol Weather History for the Previous 24 Hours

Scroll right to see more
 ConditionsComfort  
Time TempWeatherWind HumidityBarometerVisibility
6:15 PM
Tue, May 24
76 °FSunny.5 mph35%30.15 "Hg10 mi
5:55 PM77 °FSunny.5 mph34%30.15 "Hg10 mi
5:15 PM76 °FSunny.6 mph38%30.16 "Hg10 mi
4:55 PM77 °FSunny.No wind35%30.15 "Hg10 mi
4:15 PM77 °FSunny.8 mph36%30.16 "Hg10 mi
3:55 PM76 °FSunny.8 mph36%30.16 "Hg10 mi
3:35 PM76 °FSunny.No wind37%30.17 "Hg10 mi
3:15 PM76 °FSunny.3 mph37%30.17 "Hg10 mi
2:55 PM75 °FSunny.6 mph39%30.17 "Hg10 mi
2:15 PM74 °FScattered clouds.3 mph41%30.18 "Hg10 mi
1:55 PM74 °FScattered clouds.7 mph42%30.19 "Hg10 mi
1:15 PM74 °FScattered clouds.6 mph40%30.20 "Hg10 mi
12:55 PM73 °FScattered clouds.5 mph42%30.21 "Hg10 mi
12:35 PM72 °FScattered clouds.10 mph46%30.20 "Hg10 mi
12:15 PM71 °FScattered clouds.9 mph51%30.20 "Hg10 mi
11:55 AM71 °FScattered clouds.9 mph50%30.20 "Hg10 mi
11:35 AM71 °FScattered clouds.8 mph54%30.20 "Hg10 mi
11:15 AM70 °FSunny.6 mph54%30.20 "Hg10 mi
10:55 AM69 °FSunny.3 mph51%30.19 "Hg10 mi
10:35 AM69 °FSunny.No wind53%30.19 "Hg10 mi
10:15 AM67 °FSunny.No wind54%30.20 "Hg10 mi
9:55 AM66 °FSunny.No wind57%30.19 "Hg10 mi
9:15 AM62 °FSunny.3 mph70%30.19 "Hg10 mi
8:55 AM60 °FSunny.3 mph76%30.19 "Hg10 mi
8:35 AM57 °FSunny.5 mph81%30.19 "Hg10 mi
8:15 AM56 °FSunny.5 mph84%30.18 "Hg10 mi
7:55 AM55 °FSunny.5 mph86%30.18 "Hg10 mi
7:15 AM51 °FSunny.No wind99%30.16 "Hg10 mi
6:55 AM49 °FClear.3 mph99%30.16 "Hg10 mi
6:15 AM47 °FClear.5 mph97%30.14 "Hg10 mi
5:55 AM48 °FClear.No wind98%30.12 "Hg10 mi
5:35 AM49 °FClear.No wind98%30.11 "Hg10 mi
5:15 AM49 °FClear.No wind98%30.11 "Hg10 mi
4:55 AM49 °FClear.No wind97%30.11 "Hg10 mi
4:15 AM50 °FClear.No wind95%30.10 "Hg10 mi
3:55 AM50 °FClear.No wind95%30.10 "Hg10 mi
3:15 AM51 °FClear.No wind92%30.10 "Hg10 mi
2:55 AM53 °FClear.No wind88%30.09 "Hg10 mi
2:15 AM50 °FClear.No wind94%30.09 "Hg10 mi
1:55 AM52 °FClear.No wind92%30.10 "Hg10 mi
1:15 AM51 °FClear.8 mph93%30.09 "Hg10 mi
12:55 AM52 °FClear.No wind92%30.10 "Hg10 mi
12:15 AM52 °FClear.No wind91%30.10 "Hg10 mi
11:55 PM
Mon, May 23
53 °FClear.No wind91%30.11 "Hg10 mi
11:35 PM54 °FClear.No wind85%30.11 "Hg10 mi
11:15 PM54 °FClear.No wind88%30.10 "Hg10 mi
10:55 PM55 °FClear.No wind84%30.11 "Hg10 mi
10:35 PM55 °FClear.No wind84%30.10 "Hg10 mi
10:15 PM56 °FClear.No wind83%30.09 "Hg10 mi
9:55 PM57 °FClear.No wind79%30.08 "Hg10 mi
9:15 PM59 °FSunny.No wind76%30.07 "Hg10 mi
8:55 PM60 °FSunny.No wind73%30.07 "Hg10 mi
8:15 PM64 °FSunny.No wind57%30.06 "Hg10 mi
7:55 PM66 °FSunny.3 mph54%30.06 "Hg10 mi
7:35 PM66 °FSunny.No wind52%30.05 "Hg10 mi
7:15 PM65 °FScattered clouds.5 mph53%30.05 "Hg10 mi
Weather by CustomWeather, © 2016

See weather overviewHow to use our weather pages